Вернуться в каталог

FREGAT DEB

LostUNKNOWN
NORAD 46108·DEBRIS·🇷🇺 Russia

Запущен Jul 18, 2011 с Baikonur Cosmodrome

Loading…

Ближайшие Пролёты (ближайшие 24 часа)

TLE

УстаревшееSource: Space-Track

Эпоха: Oct 29, 2022, 21:26 UTC

1 46108U 11037JT  22302.89327025  .05783922  00000-0  71923+0 0  9993
2 46108  51.6994 181.4114 1689997 106.3312 272.9419 11.80220431 89878

Отслеживайте FREGAT DEB в реальном времени с AllMySat

Download on the App Store